Date,TemperatureHighF,TemperatureAvgF,TemperatureLowF,DewpointHighF,DewpointAvgF,DewpointLowF,HumidityHigh,HumidityAvg,HumidityLow,PressureMaxIn,PressureMinIn,WindSpeedMaxMPH,WindSpeedAvgMPH,GustSpeedMaxMPH,PrecipitationSumIn
2013-2-1,66,48,34,29,23,19,66,41,17,30.17,30.06,5,2,8,0.00
2013-2-2,68,53,39,30,21,11,53,33,11,30.17,30.03,8,2,18,0.00
2013-2-3,64,53,45,40,27,18,67,40,18,30.05,29.83,11,2,19,0.00
2013-2-4,64,50,38,38,35,32,80,59,35,29.94,29.83,9,1,14,0.00
2013-2-5,64,50,38,40,34,29,86,59,26,29.94,29.82,9,1,15,0.00
2013-2-6,63,50,40,35,32,27,77,55,26,29.94,29.80,12,3,18,0.00
2013-2-7,62,48,34,36,30,23,88,55,23,30.02,29.90,6,1,11,0.00
2013-2-8,64,52,40,24,18,3,48,28,11,29.90,29.66,19,5,26,0.00
2013-2-9,46,38,26,31,24,15,81,58,30,29.97,29.62,19,6,24,0.00
2013-2-10,54,37,21,24,12,-10,86,46,7,30.02,29.91,13,3,22,0.00
2013-2-11,49,36,26,32,20,9,94,56,33,30.08,29.88,15,5,23,0.00
2013-2-12,45,31,18,32,22,16,94,74,38,30.23,30.08,10,2,13,0.07
2013-2-13,55,38,23,25,18,10,85,52,17,30.20,30.05,6,1,9,0.00
2013-2-14,61,43,27,22,18,16,64,40,18,30.11,29.96,7,2,12,0.00
2013-2-15,63,46,34,25,15,-7,64,35,6,30.21,30.06,9,2,17,0.00
2013-2-16,65,52,38,15,10,3,34,19,9,30.21,29.94,15,4,20,0.00
2013-2-17,67,54,40,11,5,-1,23,15,8,29.93,29.72,24,6,29,0.00
2013-2-18,64,50,35,15,11,5,38,23,11,29.94,29.82,12,3,19,0.00
2013-2-19,58,49,38,40,26,9,63,41,22,29.87,29.63,14,5,32,0.00
2013-2-20,44,40,38,31,26,19,75,58,39,29.63,29.57,16,3,22,0.00
2013-2-21,46,33,18,31,24,16,94,74,41,30.06,29.89,6,1,13,0.20
2013-2-22,53,38,27,33,28,25,94,69,34,30.09,29.97,12,2,15,0.00
2013-2-23,64,44,27,30,24,15,89,52,15,30.09,29.77,14,3,19,0.00
2013-2-24,51,41,23,23,11,-5,54,32,10,29.98,29.66,24,8,31,0.00
2013-2-25,53,36,20,14,9,1,62,37,12,30.17,29.98,10,3,16,0.00
2013-2-26,63,42,24,16,9,-3,57,30,8,30.04,29.88,12,3,22,0.00
2013-2-27,58,43,27,16,9,2,57,28,12,30.12,30.00,9,2,12,0.00
2013-2-28,61,42,24,11,2,-13,49,24,5,30.27,30.10,10,2,14,0.00